EHI
4 4 2 1 1 2 3 3 3 1 0 0 0 0 0 0 0 0 0 2 8 13 15 16 15 13 12 11 10 9 8 7 6 4 3 1 0 0 0 0 1 2 2
4 3 2 0 0 1 2 3 3 2 0 0 0 0 0 0 1 1 0 1 5 9 13 15 16 14 13 12 11 10 8 6 5 4 3 2 1 0 0 0 1 1 1
2 2 1 0 0 1 1 2 3 2 1 0 0 0 0 0 1 1 0 0 2 4 9 13 15 15 13 12 12 10 8 5 2 2 2 2 1 0 0 0 0 0 0
1 1 1 0 1 2 1 1 2 3 2 1 0 0 0 0 1 1 0 0 0 1 3 8 12 13 13 12 11 10 7 4 1 1 1 1 0 0 0 0 0 0 0
1 1 0 0 0 1 0 1 2 3 3 2 1 0 0 0 0 0 0 0 0 0 1 3 7 10 11 10 9 8 8 5 3 2 2 1 1 1 0 0 0 0 0
3 2 1 0 0 0 0 0 1 3 3 2 1 0 0 1 1 0 0 0 0 0 0 1 2 5 7 8 8 9 9 7 5 4 3 3 2 2 1 0 0 0 0
4 3 2 1 0 0 0 0 1 2 2 1 0 0 0 1 1 0 0 0 0 0 0 0 0 1 3 5 8 10 11 9 7 6 4 3 3 2 1 0 0 0 0
4 4 4 2 1 0 0 0 0 1 1 1 0 0 0 0 0 0 0 0 0 0 0 0 0 0 0 2 5 8 10 9 8 7 6 4 3 2 1 0 0 0 0
4 4 4 3 1 0 0 0 0 0 1 0 0 0 0 0 0 0 0 0 0 0 0 0 0 0 0 0 1 3 5 6 7 7 6 4 3 3 1 0 0 0 0
6 5 4 3 2 1 0 0 0 1 1 1 0 0 0 0 0 0 0 0 0 0 0 0 0 0 0 0 0 0 1 2 4 6 5 4 4 3 2 1 0 0 0
5 5 4 3 2 1 0 0 0 1 1 1 0 0 0 0 0 0 0 0 0 0 0 0 0 0 0 1 0 0 0 0 1 2 2 3 3 3 3 2 1 0 0
2 3 3 2 2 1 0 0 0 0 1 1 0 0 0 0 0 0 0 0 0 0 0 0 0 0 0 0 0 0 0 0 0 0 0 1 1 2 3 3 2 1 0
0 1 1 1 1 0 0 0 0 0 0 0 0 0 0 0 0 0 0 0 0 0 0 0 0 0 0 0 0 0 0 0 0 0 0 0 0 1 2 2 2 1 1
0 0 0 0 0 0 0 0 0 0 0 0 0 0 0 0 0 0 0 0 0 0 0 0 0 0 0 0 0 0 0 0 0 0 0 0 0 0 1 1 1 1 0
0 0 0 0 0 0 0 0 0 0 0 0 0 0 0 0 0 0 0 0 0 0 0 0 0 0 0 0 0 0 0 0 0 0 0 0 0 0 0 0 0 0 0
0 0 0 0 0 0 0 0 0 0 0 0 0 0 0 0 0 0 0 0 0 0 0 0 0 0 0 0 0 0 0 0 0 0 0 0 0 0 0 0 0 0 0
0 0 0 0 0 0 0 0 0 0 0 0 0 0 0 0 0 0 0 0 0 0 0 0 0 0 0 0 0 0 0 0 0 0 0 0 0 0 0 0 0 0 0
0 0 0 0 0 0 0 0 0 0 0 0 0 0 0 0 0 0 0 0 0 0 0 0 0 0 0 0 0 0 0 0 0 0 0 0 0 0 0 0 0 0 0
0 0 0 0 0 0 0 0 0 0 0 0 0 0 0 0 0 0 0 0 0 0 0 0 0 0 0 0 0 0 0 0 0 0 0 0 0 0 0 0 0 0 0
0 0 0 0 0 0 0 0 0 0 0 0 0 0 0 0 0 0 0 0 0 0 0 0 0 0 0 0 0 0 0 0 0 0 0 0 0 0 0 0 0 0 0
0 0 0 0 0 0 0 0 0 0 0 0 0 0 0 0 0 0 0 0 0 0 0 0 0 0 0 0 0 0 0 0 0 0 0 0 0 0 0 0 0 0 0
0 0 0 0 0 0 0 0 0 0 0 0 0 0 0 0 0 0 0 0 0 0 0 0 0 0 0 0 0 0 0 0 0 0 0 0 0 0 0 0 0 0 0
0 0 0 0 0 0 0 0 0 0 0 0 0 0 0 0 0 0 0 0 0 0 0 0 0 0 0 0 0 0 0 0 0 0 0 0 0 0 0 0 0 0 0
0 0 0 0 0 0 0 0 0 0 0 0 0 0 0 0 0 0 0 0 0 0 0 0 0 0 0 0 0 0 0 0 0 0 0 0 0 0 0 0 0 0 0
0 0 0 0 0 0 0 0 0 0 0 0 0 0 0 0 0 0 0 0 0 0 0 0 0 0 0 0 0 0 0 0 0 0 0 0 0 0 0 0 0 0 0
0 0 0 0 0 0 0 0 0 0 0 0 0 0 0 0 0 0 0 0 0 0 0 0 0 0 0 0 0 0 0 0 0 0 0 0 0 0 0 0 0 0 0
Wind_Speed
2 2 2 1 1 1 2 1 1 1 2 2 2 3 3 3 3 3 3 8 8 8 9 9 9 9 8 8 8 8 7 7 7 7 7 6 6 6 6 7 7 7 8
2 2 1 1 1 1 1 2 2 2 1 1 2 2 3 3 3 3 3 5 8 8 9 9 9 9 9 9 9 8 8 8 8 8 8 8 7 7 7 7 7 8 8
2 2 2 1 1 1 1 1 1 1 0 1 1 2 2 3 3 4 3 3 3 7 8 8 8 9 9 9 9 9 9 9 8 8 8 8 8 8 7 7 8 8 8
2 2 2 1 1 1 1 1 1 1 0 0 1 1 1 2 3 3 3 3 3 3 5 7 8 8 9 9 9 9 9 9 9 9 9 9 8 8 8 8 8 8 8
1 2 2 1 1 1 1 1 1 1 1 0 1 1 1 2 2 3 3 4 3 3 3 5 7 7 7 8 9 9 9 9 9 9 9 9 9 9 9 9 9 9 8
1 2 2 1 1 2 1 1 1 1 1 1 1 1 1 2 1 2 3 2 3 3 3 3 3 4 7 8 8 9 10 10 10 10 10 9 9 9 9 10 9 10 9
2 2 2 1 1 2 1 1 1 1 1 1 1 2 3 2 1 1 1 1 2 3 3 3 3 3 3 7 8 9 10 10 11 11 10 10 9 9 9 10 10 10 10
2 3 3 2 2 2 1 0 1 1 0 1 2 2 2 4 3 1 1 1 2 2 2 3 3 4 3 3 5 10 11 11 11 11 11 10 9 10 10 10 10 10 11
2 2 2 2 2 2 2 1 1 2 1 0 2 3 2 2 3 3 2 1 1 1 2 2 3 3 4 3 4 7 10 10 11 11 10 9 9 9 10 10 11 11 12
2 2 2 2 2 1 2 1 1 2 2 1 0 1 2 3 2 2 3 2 2 2 2 2 2 3 3 3 4 6 8 9 10 10 10 9 9 10 11 11 11 12 12
1 2 2 2 2 2 2 1 1 1 2 2 1 1 0 0 1 2 2 3 3 2 2 2 2 2 2 2 2 4 5 6 7 7 8 9 10 10 10 11 12 13 13
0 1 2 2 2 2 2 1 1 1 1 2 1 1 1 1 1 1 2 2 2 3 2 2 2 2 2 1 3 3 4 4 5 6 7 8 9 10 11 11 12 13 13
1 1 1 2 2 2 2 2 1 1 2 2 2 1 1 2 2 2 1 1 2 2 2 2 2 2 2 1 2 4 4 5 5 6 7 8 9 10 11 11 11 12 12
2 2 2 2 2 2 1 1 1 1 1 1 1 1 1 2 2 2 2 2 1 2 2 3 2 2 2 2 3 4 3 4 5 6 6 7 8 9 9 9 10 10 11
2 2 2 3 2 2 1 1 0 1 1 1 1 1 1 2 2 2 2 2 2 1 3 3 2 2 2 2 3 2 2 5 6 6 7 7 8 8 9 9 9 9 10
1 1 2 2 2 1 1 1 1 1 1 1 1 0 1 1 1 1 1 1 2 3 3 3 2 3 3 3 4 2 3 6 6 7 7 7 8 8 8 8 8 9 9
1 2 2 2 2 1 1 1 1 1 1 0 0 1 1 1 0 1 1 1 1 1 2 3 2 2 2 3 3 3 3 3 3 7 7 7 7 7 8 8 8 9 9
2 2 2 2 2 2 1 2 2 2 2 1 1 1 1 1 1 1 1 1 1 1 2 3 3 2 3 3 3 3 3 3 3 6 7 7 7 7 7 7 8 9 9
1 1 2 2 2 2 2 2 2 2 2 2 2 2 2 1 1 2 2 1 1 1 1 2 3 2 2 2 2 3 4 3 4 4 6 6 7 7 7 7 8 9 9
1 1 1 1 1 1 1 1 2 2 1 1 2 2 2 3 3 3 2 2 2 1 1 1 2 2 2 2 1 2 3 3 3 4 4 5 5 6 7 7 8 8 8
2 1 1 1 1 1 0 1 1 1 1 1 2 2 3 3 4 3 2 2 2 1 1 1 2 2 3 2 2 2 3 3 3 2 2 3 3 2 4 6 7 7 7
1 1 1 1 1 0 1 1 0 1 1 1 2 3 3 2 3 3 3 3 3 3 3 2 2 3 4 3 2 2 2 2 3 2 1 3 2 3 3 3 5 7 7
1 0 0 1 1 1 1 1 1 0 1 1 1 2 2 2 1 1 2 2 2 4 4 4 4 4 4 4 2 2 2 2 4 3 1 3 2 3 4 4 6 7 7
1 0 0 0 1 1 1 1 2 1 0 1 2 2 2 2 1 1 1 2 3 3 3 2 4 5 5 4 4 4 4 3 4 3 1 2 3 3 4 3 5 7 6
1 0 0 1 1 1 1 1 1 1 1 2 2 1 1 2 3 1 0 2 4 4 4 3 4 5 6 6 4 1 1 1 3 3 1 2 2 2 2 3 4 6 6
1 0 1 0 1 1 1 0 0 1 0 2 2 2 3 3 3 2 1 1 3 4 4 4 4 5 4 5 4 3 3 2 2 3 3 1 2 1 2 3 3 3 3
Wind_Direction
195 201 194 198 215 207 205 210 201 225 233 232 218 197 190 184 187 186 190 198 198 195 194 194 194 197 201 201 201 203 204 205 206 204 203 206 214 220 220 220 219 217 216
180 177 178 189 214 218 203 189 192 202 222 222 223 204 196 193 194 190 198 205 206 203 200 199 199 203 208 207 208 210 211 214 215 213 210 211 215 221 223 223 223 221 217
166 164 170 178 194 208 194 162 175 154 217 237 223 209 198 194 193 194 198 202 208 211 209 207 207 212 216 217 219 220 220 220 222 220 218 218 220 221 225 227 225 222 221
154 151 159 175 172 141 150 154 141 130 196 247 239 235 213 199 194 197 198 205 206 217 222 217 215 219 222 225 227 229 227 224 224 225 224 222 222 225 226 228 228 224 222
141 138 145 154 162 136 140 196 170 162 170 223 233 227 225 216 205 204 207 211 208 207 212 219 219 224 228 234 237 236 232 228 226 227 229 227 225 226 225 226 228 227 226
128 142 133 135 147 131 126 146 155 151 183 204 249 300 276 251 211 207 213 215 209 208 209 218 225 236 237 239 239 239 236 234 230 227 229 230 228 226 224 226 227 229 228
131 133 135 149 156 148 164 144 147 157 208 152 82 358 334 324 264 241 218 200 218 222 210 216 219 226 241 238 236 239 240 240 235 230 230 229 227 225 224 227 229 230 230
158 147 141 152 148 144 137 123 151 163 234 147 129 101 356 337 329 296 253 223 237 235 235 231 227 227 230 229 237 241 242 240 236 233 233 232 231 229 229 228 229 231 232
163 154 145 149 146 152 162 184 172 164 181 255 125 135 139 240 303 316 298 273 268 252 260 264 247 243 234 231 241 244 244 237 233 234 235 234 234 232 232 233 234 234 233
176 166 154 154 159 159 159 198 191 173 151 160 6 141 168 175 172 296 315 308 295 276 268 273 263 255 246 234 239 241 240 233 229 232 235 236 236 237 236 237 238 239 238
186 180 167 156 160 163 168 168 172 162 155 168 178 180 193 88 156 166 276 307 321 298 281 267 266 265 261 245 240 252 246 237 230 232 236 240 241 241 244 245 243 242 241
271 196 167 167 171 167 167 168 175 163 165 170 174 167 166 179 216 183 221 270 291 291 294 281 275 276 279 259 260 269 257 241 232 233 240 246 247 245 245 247 247 244 244
251 219 185 183 177 174 175 167 161 182 171 171 189 198 199 203 192 176 175 247 279 291 311 302 281 283 284 270 273 271 259 247 242 241 245 249 251 248 246 247 248 246 245
222 206 183 172 167 165 164 152 170 207 170 175 198 203 215 232 204 187 184 184 295 312 311 290 305 297 298 291 286 283 267 255 254 250 251 253 254 252 250 250 251 250 247
218 193 180 168 165 161 154 133 148 210 172 190 213 224 245 247 223 207 184 170 169 259 285 280 291 295 297 284 294 297 283 271 266 262 257 252 251 252 252 251 251 251 249
202 159 154 155 156 160 153 132 167 188 153 207 198 169 273 272 278 221 187 185 176 188 244 266 260 274 291 304 298 283 272 283 275 269 263 258 255 252 252 254 252 253 250
157 150 151 147 152 162 167 155 192 167 161 204 233 193 264 270 260 273 224 180 182 167 232 277 273 280 288 290 302 296 286 278 275 271 271 268 260 254 257 256 252 251 250
153 146 140 147 169 181 192 186 187 167 167 192 236 231 254 256 240 241 232 220 225 197 188 262 289 289 281 277 287 293 294 288 278 279 277 272 266 260 260 257 256 254 252
116 119 135 161 182 183 187 194 192 185 186 200 206 206 226 210 237 238 236 237 242 246 197 223 272 280 286 298 310 303 301 295 290 289 283 277 274 270 267 264 262 260 253
119 108 113 136 159 159 167 181 171 169 183 217 223 213 216 210 218 228 233 239 235 247 243 240 264 280 286 294 299 294 304 302 300 304 304 300 291 283 280 276 271 266 254
108 112 93 73 88 133 190 171 171 184 197 243 263 248 242 238 230 227 227 230 219 225 237 242 265 286 290 300 289 275 286 299 295 280 294 300 300 294 290 281 273 263 255
100 93 84 93 75 59 38 43 141 203 211 217 269 283 277 262 266 267 266 243 212 209 223 229 250 262 268 262 262 274 281 318 303 291 292 294 292 287 284 275 269 263 258
134 104 344 47 46 349 9 5 10 145 180 212 252 278 287 286 271 270 304 319 290 259 227 210 229 248 251 249 246 268 258 248 254 265 287 286 288 285 286 291 283 275 268
131 134 308 11 65 345 7 22 9 42 16 264 260 254 249 276 281 264 309 331 312 294 269 233 224 243 249 248 228 226 236 259 273 274 214 261 285 281 295 298 295 288 283
91 80 83 74 81 333 345 352 54 48 337 296 289 285 252 257 272 272 44 315 317 310 308 295 268 267 271 269 248 221 272 279 288 284 237 216 269 287 297 292 293 295 291
138 102 35 331 179 240 289 313 146 133 261 290 305 302 278 260 272 260 218 242 285 287 306 322 321 315 303 297 281 222 215 225 254 277 261 211 259 294 309 297 299 311 312